^^
Datos históricos de la estación: Murcia-Puente Tocinos
Diario Informe para Abril 17, 2019 Unidades:  Métrico    Inglés   Ambas
Diario Semanal Mensual Anual Configurable
  Máximo: Mínimo: Media:
Temperatura: 19.9 °C 14.9 °C 16.6 °C
Punto de rocio: 13.3 °C 9.8 °C 11.9 °C
Humedad: 88% 53% 75%
Velocidad viento: 24.1km/h 2.9km/h 11.2km/h
Racha viento: 37.0km/h - -
Viento- - ENE
Presión: 1018.0 hPa 1011.6 hPa -
Precipitación: 0.0 mm    
Historical Graphs
 
 
Tabla de datos para Abril 17, 2019
Hora Temperatura Punto de rocio Presión Viento Velocidad viento Racha viento Humedad Intensidad lluvia(por hora) Nubes
00:00 15.4 °C 12.9 °C 1018.0 hPa NE 8.0 km/h 12.9 km/h 85% 0.0 mm CLR
00:05 15.4 °C 12.9 °C 1018.0 hPa NE 8.4 km/h 11.1 km/h 85% 0.0 mm CLR
00:10 15.4 °C 12.9 °C 1018.0 hPa NE 7.6 km/h 7.4 km/h 85% 0.0 mm CLR
00:15 15.4 °C 12.9 °C 1018.0 hPa ENE 7.6 km/h 11.1 km/h 85% 0.0 mm CLR
00:20 15.5 °C 13.0 °C 1017.9 hPa NE 8.0 km/h 11.3 km/h 85% 0.0 mm CLR
00:25 15.5 °C 13.0 °C 1017.9 hPa NE 6.4 km/h 7.4 km/h 85% 0.0 mm CLR
00:30 15.5 °C 13.0 °C 1017.9 hPa NE 8.0 km/h 11.3 km/h 85% 0.0 mm CLR
00:35 15.5 °C 13.0 °C 1018.0 hPa NE 8.0 km/h 11.3 km/h 85% 0.0 mm CLR
00:40 15.5 °C 13.2 °C 1018.0 hPa NNE 8.0 km/h 11.3 km/h 86% 0.0 mm CLR
00:45 15.5 °C 13.2 °C 1018.0 hPa NE 6.9 km/h 11.1 km/h 86% 0.0 mm CLR
00:50 15.4 °C 13.1 °C 1017.9 hPa NE 8.0 km/h 11.3 km/h 86% 0.0 mm CLR
00:55 15.4 °C 13.1 °C 1017.9 hPa NE 8.0 km/h 11.3 km/h 86% 0.0 mm CLR
01:00 15.4 °C 13.1 °C 1017.9 hPa NE 8.0 km/h 16.1 km/h 86% 0.0 mm CLR
01:05 15.3 °C 13.2 °C 1017.8 hPa NE 8.0 km/h 16.1 km/h 87% 0.0 mm CLR
01:10 15.3 °C 13.2 °C 1017.8 hPa NE 8.7 km/h 9.5 km/h 87% 0.0 mm CLR
01:15 15.3 °C 13.2 °C 1017.8 hPa NE 9.7 km/h 12.9 km/h 87% 0.0 mm CLR
01:20 15.3 °C 13.2 °C 1017.8 hPa North 7.6 km/h 13.0 km/h 87% 0.0 mm CLR
01:25 15.3 °C 13.2 °C 1017.8 hPa NNE 8.0 km/h 16.1 km/h 87% 0.0 mm CLR
01:30 15.2 °C 13.1 °C 1017.8 hPa NNE 8.7 km/h 16.7 km/h 87% 0.0 mm CLR
01:35 15.2 °C 13.2 °C 1017.6 hPa NNE 8.7 km/h 16.7 km/h 88% 0.0 mm CLR
01:40 15.2 °C 13.2 °C 1017.6 hPa NE 9.7 km/h 14.5 km/h 88% 0.0 mm CLR
01:45 15.2 °C 13.2 °C 1017.6 hPa NE 9.7 km/h 12.9 km/h 88% 0.0 mm CLR
01:50 15.2 °C 13.2 °C 1017.5 hPa NE 8.0 km/h 12.9 km/h 88% 0.0 mm CLR
01:55 15.2 °C 13.2 °C 1017.5 hPa NNE 8.4 km/h 9.3 km/h 88% 0.0 mm CLR
02:00 15.2 °C 13.2 °C 1017.5 hPa NE 9.7 km/h 14.5 km/h 88% 0.0 mm CLR
02:05 15.2 °C 13.2 °C 1017.5 hPa ENE 8.7 km/h 11.1 km/h 88% 0.0 mm CLR
02:10 15.2 °C 13.2 °C 1017.5 hPa NNE 8.7 km/h 11.1 km/h 88% 0.0 mm CLR
02:15 15.2 °C 13.2 °C 1017.5 hPa NNE 8.7 km/h 14.8 km/h 88% 0.0 mm CLR
02:20 15.2 °C 13.2 °C 1017.2 hPa NE 9.7 km/h 14.5 km/h 88% 0.0 mm CLR
02:25 15.2 °C 13.2 °C 1017.2 hPa NNE 9.5 km/h 14.8 km/h 88% 0.0 mm CLR
02:30 15.2 °C 13.2 °C 1017.2 hPa NE 8.0 km/h 16.1 km/h 88% 0.0 mm CLR
02:35 15.2 °C 13.2 °C 1017.3 hPa NE 8.0 km/h 11.3 km/h 88% 0.0 mm CLR
02:40 15.2 °C 13.2 °C 1017.3 hPa NE 8.4 km/h 13.0 km/h 88% 0.0 mm CLR
02:45 15.2 °C 13.2 °C 1017.3 hPa NE 8.4 km/h 13.0 km/h 88% 0.0 mm CLR
02:50 15.2 °C 13.2 °C 1017.3 hPa NE 9.7 km/h 16.1 km/h 88% 0.0 mm CLR
02:55 15.2 °C 13.2 °C 1017.3 hPa NE 8.7 km/h 11.1 km/h 88% 0.0 mm CLR
03:00 15.2 °C 13.2 °C 1017.3 hPa NE 8.0 km/h 14.5 km/h 88% 0.0 mm CLR
03:05 15.3 °C 13.3 °C 1017.2 hPa NE 7.6 km/h 7.4 km/h 88% 0.0 mm CLR
03:10 15.3 °C 13.3 °C 1017.2 hPa NE 8.0 km/h 11.3 km/h 88% 0.0 mm CLR
03:15 15.2 °C 13.1 °C 1017.2 hPa NE 6.9 km/h 14.8 km/h 87% 0.0 mm CLR
03:20 15.2 °C 13.1 °C 1017.0 hPa NE 8.0 km/h 14.5 km/h 87% 0.0 mm CLR
03:25 15.2 °C 13.1 °C 1017.0 hPa NE 8.0 km/h 14.5 km/h 87% 0.0 mm CLR
03:29 15.2 °C 13.1 °C 1017.0 hPa NE 8.7 km/h 8.4 km/h 87% 0.0 mm CLR
03:35 15.2 °C 13.1 °C 1016.9 hPa NNE 8.7 km/h 11.1 km/h 87% 0.0 mm CLR
03:40 15.2 °C 13.1 °C 1016.9 hPa NNE 8.0 km/h 14.5 km/h 87% 0.0 mm CLR
03:45 15.2 °C 13.1 °C 1016.9 hPa NE 6.9 km/h 11.1 km/h 87% 0.0 mm CLR
03:50 15.2 °C 13.1 °C 1016.9 hPa ENE 8.7 km/h 16.7 km/h 87% 0.0 mm CLR
03:55 15.2 °C 13.1 °C 1016.9 hPa NE 9.7 km/h 16.1 km/h 87% 0.0 mm CLR
04:00 15.2 °C 13.1 °C 1016.9 hPa NE 11.3 km/h 16.1 km/h 87% 0.0 mm CLR
04:05 15.2 °C 13.1 °C 1016.7 hPa NE 10.3 km/h 14.8 km/h 87% 0.0 mm CLR
04:10 15.2 °C 13.1 °C 1016.7 hPa NE 8.0 km/h 12.9 km/h 87% 0.0 mm CLR
04:15 15.2 °C 13.1 °C 1016.7 hPa ENE 8.4 km/h 9.3 km/h 87% 0.0 mm CLR
04:20 15.1 °C 12.8 °C 1016.6 hPa NE 8.0 km/h 14.5 km/h 86% 0.0 mm CLR
04:25 15.1 °C 12.8 °C 1016.6 hPa NE 8.4 km/h 11.1 km/h 86% 0.0 mm CLR
04:30 15.1 °C 12.6 °C 1016.6 hPa NNE 8.7 km/h 7.4 km/h 85% 0.0 mm CLR
04:35 15.1 °C 12.4 °C 1016.7 hPa ENE 8.7 km/h 11.1 km/h 84% 0.0 mm CLR
04:40 15.2 °C 12.5 °C 1016.7 hPa NE 8.0 km/h 12.9 km/h 84% 0.0 mm CLR
04:45 15.2 °C 12.5 °C 1016.7 hPa NE 8.0 km/h 14.5 km/h 84% 0.0 mm CLR
04:50 15.2 °C 12.5 °C 1016.6 hPa NE 8.0 km/h 12.9 km/h 84% 0.0 mm CLR
04:55 15.2 °C 12.5 °C 1016.6 hPa NE 8.0 km/h 16.1 km/h 84% 0.0 mm CLR
05:00 15.2 °C 12.5 °C 1016.6 hPa NE 9.7 km/h 14.5 km/h 84% 0.0 mm CLR
05:05 15.2 °C 12.5 °C 1016.5 hPa NE 9.7 km/h 16.1 km/h 84% 0.0 mm CLR
05:10 15.2 °C 12.3 °C 1016.5 hPa NE 8.0 km/h 16.1 km/h 83% 0.0 mm CLR
05:15 15.1 °C 12.4 °C 1016.5 hPa NE 8.0 km/h 16.1 km/h 84% 0.0 mm CLR
05:20 15.1 °C 12.2 °C 1016.5 hPa NE 9.5 km/h 16.7 km/h 83% 0.0 mm CLR
05:25 15.1 °C 12.4 °C 1016.5 hPa ENE 9.5 km/h 9.3 km/h 84% 0.0 mm CLR
05:30 15.1 °C 12.2 °C 1016.5 hPa NE 9.7 km/h 16.1 km/h 83% 0.0 mm CLR
05:35 15.1 °C 12.2 °C 1016.4 hPa NE 9.7 km/h 16.1 km/h 83% 0.0 mm CLR
05:40 15.1 °C 12.2 °C 1016.4 hPa ENE 8.7 km/h 13.0 km/h 83% 0.0 mm CLR
05:45 15.1 °C 12.2 °C 1016.4 hPa ENE 8.7 km/h 11.1 km/h 83% 0.0 mm CLR
05:50 15.1 °C 12.2 °C 1016.3 hPa NE 8.4 km/h 10.0 km/h 83% 0.0 mm CLR
05:55 15.1 °C 12.2 °C 1016.3 hPa East 8.4 km/h 11.1 km/h 83% 0.0 mm CLR
06:00 15.1 °C 12.4 °C 1016.3 hPa NE 8.0 km/h 14.5 km/h 84% 0.0 mm CLR
06:05 15.0 °C 12.3 °C 1016.2 hPa NE 8.0 km/h 12.9 km/h 84% 0.0 mm CLR
06:10 15.0 °C 12.3 °C 1016.2 hPa NNE 8.4 km/h 11.1 km/h 84% 0.0 mm CLR
06:15 15.0 °C 12.3 °C 1016.2 hPa NE 8.4 km/h 11.1 km/h 84% 0.0 mm CLR
06:20 15.0 °C 12.3 °C 1016.2 hPa NE 6.9 km/h 9.3 km/h 84% 0.0 mm CLR
06:25 15.0 °C 12.3 °C 1016.2 hPa NNE 6.9 km/h 11.1 km/h 84% 0.0 mm CLR
06:30 14.9 °C 12.2 °C 1016.2 hPa NE 6.4 km/h 7.4 km/h 84% 0.0 mm CLR
06:35 15.0 °C 12.3 °C 1016.1 hPa NE 8.0 km/h 8.0 km/h 84% 0.0 mm CLR
06:40 15.0 °C 12.3 °C 1016.1 hPa NNE 4.7 km/h 9.3 km/h 84% 0.0 mm CLR
06:45 14.9 °C 12.2 °C 1016.1 hPa NNE 4.7 km/h 7.4 km/h 84% 0.0 mm CLR
06:50 14.9 °C 12.2 °C 1016.2 hPa NE 6.4 km/h 5.6 km/h 84% 0.0 mm CLR
06:55 14.9 °C 12.2 °C 1016.2 hPa NE 8.0 km/h 8.0 km/h 84% 0.0 mm CLR
07:00 14.9 °C 12.2 °C 1016.2 hPa NE 3.2 km/h 9.7 km/h 84% 0.0 mm CLR
07:05 14.9 °C 12.2 °C 1016.2 hPa NNE 3.2 km/h 9.7 km/h 84% 0.0 mm CLR
07:10 14.9 °C 12.1 °C 1016.2 hPa NE 5.0 km/h 9.3 km/h 83% 0.0 mm CLR
07:15 14.9 °C 12.1 °C 1016.2 hPa NE 5.0 km/h 9.5 km/h 83% 0.0 mm CLR
07:20 14.9 °C 12.1 °C 1016.3 hPa NE 8.0 km/h 9.7 km/h 83% 0.0 mm CLR
07:25 14.9 °C 12.1 °C 1016.3 hPa North 6.4 km/h 9.3 km/h 83% 0.0 mm CLR
07:30 15.0 °C 12.1 °C 1016.3 hPa NE 4.8 km/h 9.7 km/h 83% 0.0 mm CLR
07:35 15.0 °C 12.1 °C 1016.5 hPa NE 4.8 km/h 9.7 km/h 83% 0.0 mm CLR
07:40 15.0 °C 12.1 °C 1016.5 hPa NE 4.8 km/h 8.0 km/h 83% 0.0 mm CLR
07:45 15.0 °C 12.1 °C 1016.5 hPa NNE 4.8 km/h 9.7 km/h 83% 0.0 mm CLR
07:50 15.0 °C 12.1 °C 1016.5 hPa NNE 4.7 km/h 7.4 km/h 83% 0.0 mm CLR
07:55 15.1 °C 12.2 °C 1016.5 hPa North 4.7 km/h 7.4 km/h 83% 0.0 mm CLR
08:00 15.1 °C 12.2 °C 1016.5 hPa NNE 3.2 km/h 9.7 km/h 83% 0.0 mm CLR
08:05 15.2 °C 12.3 °C 1016.5 hPa NNE 3.2 km/h 11.3 km/h 83% 0.0 mm CLR
08:10 15.2 °C 12.2 °C 1016.5 hPa NNE 5.8 km/h 9.3 km/h 82% 0.0 mm CLR
08:15 15.2 °C 12.2 °C 1016.5 hPa NNE 5.8 km/h 9.3 km/h 82% 0.0 mm CLR
08:20 15.2 °C 12.2 °C 1016.6 hPa NNE 5.8 km/h 7.4 km/h 82% 0.0 mm CLR
08:25 15.2 °C 12.2 °C 1016.6 hPa North 5.8 km/h 5.6 km/h 82% 0.0 mm CLR
08:30 15.3 °C 12.2 °C 1016.6 hPa NNE 3.2 km/h 8.0 km/h 82% 0.0 mm CLR
08:35 15.2 °C 12.2 °C 1016.6 hPa NE 4.7 km/h 9.3 km/h 82% 0.0 mm CLR
08:40 15.3 °C 12.2 °C 1016.6 hPa NNE 6.9 km/h 11.1 km/h 82% 0.0 mm CLR
08:45 15.3 °C 12.2 °C 1016.6 hPa NNE 6.9 km/h 9.5 km/h 82% 0.0 mm CLR
08:50 15.6 °C 12.3 °C 1016.6 hPa NNE 8.0 km/h 11.3 km/h 81% 0.0 mm CLR
08:55 15.7 °C 12.3 °C 1016.6 hPa NNE 8.0 km/h 14.5 km/h 80% 0.0 mm CLR
09:00 15.8 °C 12.2 °C 1016.6 hPa NNE 8.0 km/h 14.5 km/h 79% 0.0 mm CLR
09:05 15.8 °C 11.9 °C 1016.6 hPa NE 7.6 km/h 13.0 km/h 78% 0.0 mm CLR
09:10 15.8 °C 11.9 °C 1016.6 hPa NE 10.0 km/h 11.1 km/h 78% 0.0 mm CLR
09:15 15.9 °C 12.1 °C 1016.6 hPa East 10.0 km/h 12.2 km/h 78% 0.0 mm CLR
09:20 16.1 °C 11.9 °C 1016.5 hPa NE 7.6 km/h 11.1 km/h 76% 0.0 mm CLR
09:25 16.2 °C 11.6 °C 1016.5 hPa NE 8.0 km/h 20.9 km/h 74% 0.0 mm CLR
09:30 16.2 °C 11.6 °C 1016.5 hPa NE 9.7 km/h 22.5 km/h 74% 0.0 mm CLR
09:35 16.2 °C 11.6 °C 1016.4 hPa NE 9.7 km/h 22.5 km/h 74% 0.0 mm CLR
09:40 16.3 °C 11.7 °C 1016.4 hPa NE 11.3 km/h 22.5 km/h 74% 0.0 mm CLR
09:45 16.3 °C 11.4 °C 1016.4 hPa ENE 11.1 km/h 16.7 km/h 73% 0.0 mm CLR
09:50 16.4 °C 11.6 °C 1016.3 hPa ENE 11.1 km/h 14.8 km/h 73% 0.0 mm CLR
09:55 16.6 °C 11.7 °C 1016.3 hPa NE 11.3 km/h 16.1 km/h 73% 0.0 mm CLR
10:00 16.7 °C 11.6 °C 1016.3 hPa ENE 9.7 km/h 17.7 km/h 72% 0.0 mm CLR
10:05 16.6 °C 11.6 °C 1016.4 hPa NE 8.7 km/h 13.0 km/h 72% 0.0 mm CLR
10:10 16.4 °C 10.9 °C 1016.4 hPa NNE 8.4 km/h 20.4 km/h 70% 0.0 mm CLR
10:15 16.4 °C 10.7 °C 1016.4 hPa NE 8.0 km/h 20.9 km/h 69% 0.0 mm CLR
10:20 16.4 °C 10.7 °C 1016.4 hPa ENE 13.0 km/h 22.2 km/h 69% 0.0 mm CLR
10:25 16.4 °C 10.7 °C 1016.4 hPa NE 13.0 km/h 20.4 km/h 69% 0.0 mm CLR
10:30 16.4 °C 10.7 °C 1016.4 hPa NE 14.0 km/h 20.9 km/h 69% 0.0 mm CLR
10:35 16.4 °C 10.7 °C 1016.3 hPa NE 14.5 km/h 24.1 km/h 69% 0.0 mm CLR
10:40 16.6 °C 10.9 °C 1016.3 hPa NE 12.9 km/h 20.9 km/h 69% 0.0 mm CLR
10:45 17.0 °C 11.1 °C 1016.3 hPa NE 12.2 km/h 20.4 km/h 68% 0.0 mm CLR
10:50 16.9 °C 10.7 °C 1016.1 hPa ENE 12.2 km/h 20.4 km/h 67% 0.0 mm CLR
10:55 16.8 °C 10.6 °C 1016.1 hPa ENE 12.2 km/h 13.0 km/h 67% 0.0 mm CLR
11:00 17.1 °C 10.9 °C 1016.1 hPa NE 9.7 km/h 16.1 km/h 67% 0.0 mm CLR
11:05 17.1 °C 11.2 °C 1016.0 hPa NE 10.0 km/h 19.8 km/h 68% 0.0 mm CLR
11:10 17.0 °C 11.1 °C 1016.0 hPa NE 11.1 km/h 13.0 km/h 68% 0.0 mm CLR
11:15 17.0 °C 10.8 °C 1016.0 hPa NNE 11.1 km/h 14.8 km/h 67% 0.0 mm CLR
11:20 17.2 °C 10.8 °C 1016.1 hPa NE 10.0 km/h 20.4 km/h 66% 0.0 mm CLR
11:25 17.3 °C 10.9 °C 1016.1 hPa NE 9.7 km/h 20.9 km/h 66% 0.0 mm CLR
11:30 17.2 °C 10.8 °C 1016.1 hPa NE 9.7 km/h 24.1 km/h 66% 0.0 mm CLR
11:35 17.2 °C 11.0 °C 1016.0 hPa NE 9.7 km/h 20.9 km/h 67% 0.0 mm CLR
11:40 17.1 °C 10.9 °C 1016.0 hPa NE 11.3 km/h 20.9 km/h 67% 0.0 mm CLR
11:45 17.1 °C 10.9 °C 1016.0 hPa NNE 11.9 km/h 18.5 km/h 67% 0.0 mm CLR
11:50 17.2 °C 11.0 °C 1015.9 hPa NNE 12.2 km/h 18.5 km/h 67% 0.0 mm CLR
11:55 17.3 °C 11.1 °C 1015.9 hPa NE 12.9 km/h 25.7 km/h 67% 0.0 mm CLR
12:00 17.4 °C 11.0 °C 1015.9 hPa NE 12.9 km/h 19.3 km/h 66% 0.0 mm CLR
12:05 17.9 °C 11.2 °C 1015.7 hPa East 13.7 km/h 11.1 km/h 65% 0.0 mm CLR
12:10 18.2 °C 10.8 °C 1015.7 hPa ENE 11.3 km/h 25.7 km/h 62% 0.0 mm CLR
12:15 18.3 °C 10.4 °C 1015.7 hPa SE 11.9 km/h 18.5 km/h 60% 0.0 mm CLR
12:20 18.6 °C 10.7 °C 1015.7 hPa NE 13.0 km/h 16.7 km/h 60% 0.0 mm CLR
12:25 18.6 °C 10.4 °C 1015.7 hPa ENE 12.9 km/h 22.5 km/h 59% 0.0 mm CLR
12:30 18.8 °C 10.3 °C 1015.7 hPa East 14.0 km/h 27.8 km/h 58% 0.0 mm CLR
12:35 18.9 °C 10.4 °C 1015.6 hPa ENE 14.0 km/h 22.2 km/h 58% 0.0 mm CLR
12:40 18.9 °C 10.4 °C 1015.6 hPa ENE 14.0 km/h 16.7 km/h 58% 0.0 mm CLR
12:45 18.8 °C 9.8 °C 1015.6 hPa ENE 14.0 km/h 18.5 km/h 56% 0.0 mm CLR
12:50 18.8 °C 10.3 °C 1015.6 hPa NE 14.0 km/h 17.2 km/h 58% 0.0 mm CLR
12:55 18.9 °C 10.7 °C 1015.6 hPa NE 14.0 km/h 14.8 km/h 59% 0.0 mm CLR
13:00 19.1 °C 10.4 °C 1015.6 hPa ENE 12.9 km/h 25.7 km/h 57% 0.0 mm CLR
13:05 19.1 °C 10.3 °C 1015.3 hPa ENE 12.9 km/h 25.7 km/h 57% 0.0 mm CLR
13:10 18.8 °C 10.3 °C 1015.3 hPa NE 14.8 km/h 22.2 km/h 58% 0.0 mm CLR
13:15 18.9 °C 10.7 °C 1015.3 hPa East 14.8 km/h 24.1 km/h 59% 0.0 mm CLR
13:20 18.9 °C 10.7 °C 1015.2 hPa ENE 15.6 km/h 28.2 km/h 59% 0.0 mm CLR
13:25 19.2 °C 10.7 °C 1015.2 hPa ENE 15.6 km/h 25.9 km/h 58% 0.0 mm CLR
13:30 19.2 °C 10.4 °C 1015.2 hPa ENE 16.1 km/h 27.4 km/h 57% 0.0 mm CLR
13:35 19.1 °C 10.1 °C 1015.0 hPa ENE 16.1 km/h 30.6 km/h 56% 0.0 mm CLR
13:40 19.2 °C 10.2 °C 1015.0 hPa NNE 14.8 km/h 25.9 km/h 56% 0.0 mm CLR
13:45 19.1 °C 10.7 °C 1015.0 hPa ESE 14.8 km/h 29.6 km/h 58% 0.0 mm CLR
13:50 19.1 °C 10.4 °C 1014.7 hPa NE 16.1 km/h 27.4 km/h 57% 0.0 mm CLR
13:55 19.2 °C 10.2 °C 1014.7 hPa NNE 16.4 km/h 25.9 km/h 56% 0.0 mm CLR
14:00 19.3 °C 9.8 °C 1014.7 hPa ENE 14.5 km/h 29.0 km/h 54% 0.0 mm CLR
14:05 19.3 °C 9.8 °C 1014.4 hPa ENE 14.5 km/h 33.8 km/h 54% 0.0 mm CLR
14:10 19.3 °C 10.1 °C 1014.4 hPa NE 16.1 km/h 29.0 km/h 55% 0.0 mm CLR
14:15 19.4 °C 10.1 °C 1014.4 hPa ENE 16.1 km/h 16.7 km/h 55% 0.0 mm CLR
14:20 19.7 °C 10.1 °C 1014.2 hPa NNE 14.0 km/h 25.9 km/h 54% 0.0 mm CLR
14:25 19.6 °C 10.1 °C 1014.2 hPa ENE 14.0 km/h 25.9 km/h 54% 0.0 mm CLR
14:30 19.5 °C 9.9 °C 1014.2 hPa NE 16.4 km/h 25.9 km/h 54% 0.0 mm CLR
14:35 19.4 °C 9.8 °C 1014.0 hPa East 16.4 km/h 29.6 km/h 54% 0.0 mm CLR
14:40 19.7 °C 10.1 °C 1014.0 hPa NE 16.1 km/h 20.4 km/h 54% 0.0 mm CLR
14:45 19.8 °C 9.9 °C 1014.0 hPa North 16.1 km/h 18.5 km/h 53% 0.0 mm CLR
14:50 19.8 °C 10.2 °C 1013.9 hPa ENE 14.5 km/h 25.7 km/h 54% 0.0 mm CLR
14:55 19.9 °C 10.1 °C 1013.9 hPa NNE 14.0 km/h 25.1 km/h 53% 0.0 mm CLR
15:00 19.9 °C 10.3 °C 1013.9 hPa ENE 14.5 km/h 27.4 km/h 54% 0.0 mm CLR
15:05 19.9 °C 10.3 °C 1013.7 hPa NE 14.0 km/h 14.8 km/h 54% 0.0 mm CLR
15:10 19.8 °C 10.5 °C 1013.7 hPa ENE 14.5 km/h 30.6 km/h 55% 0.0 mm CLR
15:15 19.8 °C 10.8 °C 1013.7 hPa NE 14.0 km/h 27.8 km/h 56% 0.0 mm CLR
15:20 19.8 °C 10.5 °C 1013.7 hPa East 16.1 km/h 22.2 km/h 55% 0.0 mm CLR
15:25 19.7 °C 10.7 °C 1013.7 hPa NNE 16.1 km/h 23.3 km/h 56% 0.0 mm CLR
15:30 19.6 °C 10.8 °C 1013.7 hPa ENE 17.2 km/h 29.6 km/h 57% 0.0 mm CLR
15:35 19.8 °C 11.0 °C 1013.4 hPa NE 16.1 km/h 29.0 km/h 57% 0.0 mm CLR
15:40 19.9 °C 10.8 °C 1013.4 hPa East 14.0 km/h 24.1 km/h 56% 0.0 mm CLR
15:45 19.6 °C 11.1 °C 1013.4 hPa NNE 14.0 km/h 27.8 km/h 58% 0.0 mm CLR
15:50 19.4 °C 11.2 °C 1013.0 hPa ENE 16.1 km/h 37.0 km/h 59% 0.0 mm CLR
15:55 19.4 °C 11.4 °C 1013.0 hPa East 16.4 km/h 20.4 km/h 60% 0.0 mm CLR
16:00 19.3 °C 11.1 °C 1013.0 hPa NE 16.1 km/h 30.6 km/h 59% 0.0 mm CLR
16:05 19.4 °C 11.4 °C 1013.1 hPa ENE 17.2 km/h 24.1 km/h 60% 0.0 mm CLR
16:10 19.2 °C 11.5 °C 1013.1 hPa NE 16.4 km/h 27.8 km/h 61% 0.0 mm CLR
16:15 19.2 °C 11.7 °C 1013.1 hPa ENE 16.4 km/h 16.7 km/h 62% 0.0 mm CLR
16:20 19.3 °C 11.8 °C 1013.0 hPa ENE 14.8 km/h 24.1 km/h 62% 0.0 mm CLR
16:25 19.2 °C 12.0 °C 1013.0 hPa ENE 14.8 km/h 20.9 km/h 63% 0.0 mm CLR
16:30 19.2 °C 11.7 °C 1013.0 hPa NE 14.8 km/h 27.8 km/h 62% 0.0 mm CLR
16:35 18.9 °C 11.7 °C 1013.0 hPa NE 14.5 km/h 29.0 km/h 63% 0.0 mm CLR
16:40 18.8 °C 11.8 °C 1013.0 hPa ENE 16.4 km/h 25.9 km/h 64% 0.0 mm CLR
16:45 19.0 °C 12.1 °C 1013.0 hPa ENE 16.4 km/h 16.7 km/h 64% 0.0 mm CLR
16:50 19.1 °C 11.9 °C 1012.7 hPa NE 14.5 km/h 30.6 km/h 63% 0.0 mm CLR
16:55 18.9 °C 11.9 °C 1012.7 hPa NNE 14.8 km/h 27.8 km/h 64% 0.0 mm CLR
17:00 19.1 °C 12.1 °C 1012.7 hPa NE 14.5 km/h 25.7 km/h 64% 0.0 mm CLR
17:05 19.2 °C 12.2 °C 1012.5 hPa East 14.8 km/h 18.5 km/h 64% 0.0 mm CLR
17:10 19.1 °C 11.9 °C 1012.5 hPa NE 14.0 km/h 27.8 km/h 63% 0.0 mm CLR
17:15 18.7 °C 12.0 °C 1012.5 hPa NE 14.0 km/h 22.2 km/h 65% 0.0 mm CLR
17:20 18.7 °C 12.0 °C 1012.6 hPa ENE 16.1 km/h 32.2 km/h 65% 0.0 mm CLR
17:25 18.7 °C 12.2 °C 1012.6 hPa NE 16.1 km/h 23.7 km/h 66% 0.0 mm CLR
17:30 18.7 °C 12.0 °C 1012.6 hPa ENE 15.6 km/h 33.3 km/h 65% 0.0 mm CLR
17:35 18.4 °C 11.9 °C 1012.6 hPa ENE 14.5 km/h 33.8 km/h 66% 0.0 mm CLR
17:40 18.6 °C 12.1 °C 1012.6 hPa ENE 19.3 km/h 25.7 km/h 66% 0.0 mm CLR
17:45 18.4 °C 12.2 °C 1012.6 hPa NE 18.0 km/h 25.9 km/h 67% 0.0 mm CLR
17:50 18.4 °C 11.9 °C 1012.3 hPa East 15.6 km/h 22.2 km/h 66% 0.0 mm CLR
17:55 18.3 °C 12.1 °C 1012.3 hPa ENE 15.6 km/h 29.6 km/h 67% 0.0 mm CLR
18:00 18.1 °C 12.1 °C 1012.3 hPa NE 14.5 km/h 29.0 km/h 68% 0.0 mm CLR
18:05 18.1 °C 11.9 °C 1012.0 hPa NE 15.6 km/h 27.8 km/h 67% 0.0 mm CLR
18:10 18.1 °C 11.9 °C 1012.0 hPa ENE 16.4 km/h 33.3 km/h 67% 0.0 mm CLR
18:15 17.9 °C 11.7 °C 1012.0 hPa ENE 16.4 km/h 29.6 km/h 67% 0.0 mm CLR
18:20 17.8 °C 11.6 °C 1011.9 hPa ENE 19.0 km/h 31.7 km/h 67% 0.0 mm CLR
18:25 17.6 °C 11.6 °C 1011.9 hPa NE 19.0 km/h 31.5 km/h 68% 0.0 mm CLR
18:30 17.6 °C 11.6 °C 1011.9 hPa NE 23.7 km/h 37.0 km/h 68% 0.0 mm CLR
18:35 17.6 °C 11.8 °C 1012.0 hPa NE 24.1 km/h 37.0 km/h 69% 0.0 mm CLR
18:40 17.7 °C 11.7 °C 1012.0 hPa NNE 19.0 km/h 29.6 km/h 68% 0.0 mm CLR
18:45 17.7 °C 11.7 °C 1012.0 hPa NE 19.0 km/h 29.6 km/h 68% 0.0 mm CLR
18:50 17.5 °C 11.9 °C 1012.1 hPa East 18.0 km/h 25.9 km/h 70% 0.0 mm CLR
18:55 17.4 °C 11.9 °C 1012.1 hPa NNE 18.0 km/h 24.1 km/h 70% 0.0 mm CLR
19:00 17.4 °C 11.9 °C 1012.1 hPa NE 16.1 km/h 30.6 km/h 70% 0.0 mm CLR
19:05 17.4 °C 11.9 °C 1012.1 hPa NNE 16.1 km/h 33.3 km/h 70% 0.0 mm CLR
19:10 17.2 °C 11.9 °C 1012.1 hPa NE 18.3 km/h 27.8 km/h 71% 0.0 mm CLR
19:15 17.0 °C 11.9 °C 1012.1 hPa NE 18.3 km/h 29.6 km/h 72% 0.0 mm CLR
19:20 16.9 °C 11.8 °C 1012.1 hPa ENE 19.8 km/h 27.8 km/h 72% 0.0 mm CLR
19:25 16.9 °C 11.8 °C 1012.1 hPa NNW 19.8 km/h 20.4 km/h 72% 0.0 mm CLR
19:30 16.8 °C 11.9 °C 1012.1 hPa NNE 18.0 km/h 24.1 km/h 73% 0.0 mm CLR
19:35 16.7 °C 11.8 °C 1012.0 hPa NE 19.3 km/h 37.0 km/h 73% 0.0 mm CLR
19:40 16.7 °C 12.1 °C 1012.0 hPa NE 19.3 km/h 27.4 km/h 74% 0.0 mm CLR
19:45 16.6 °C 11.9 °C 1012.0 hPa ENE 18.0 km/h 27.8 km/h 74% 0.0 mm CLR
19:50 16.4 °C 11.8 °C 1012.0 hPa NNE 18.3 km/h 27.8 km/h 74% 0.0 mm CLR
19:55 16.4 °C 11.8 °C 1012.0 hPa ENE 18.3 km/h 27.8 km/h 74% 0.0 mm CLR
20:00 16.4 °C 11.9 °C 1012.0 hPa NE 16.1 km/h 29.0 km/h 75% 0.0 mm CLR
20:05 16.3 °C 12.1 °C 1011.7 hPa North 17.2 km/h 25.9 km/h 76% 0.0 mm CLR
20:10 16.3 °C 12.1 °C 1011.7 hPa NE 19.3 km/h 27.4 km/h 76% 0.0 mm CLR
20:15 16.3 °C 12.1 °C 1011.7 hPa NE 18.3 km/h 22.2 km/h 76% 0.0 mm CLR
20:20 16.3 °C 12.3 °C 1011.8 hPa ENE 15.6 km/h 24.1 km/h 77% 0.0 mm CLR
20:25 16.2 °C 12.2 °C 1011.8 hPa NE 14.5 km/h 32.2 km/h 77% 0.0 mm CLR
20:30 16.1 °C 12.1 °C 1011.8 hPa NE 18.0 km/h 26.2 km/h 77% 0.0 mm CLR
20:35 16.1 °C 12.3 °C 1011.6 hPa NE 19.3 km/h 29.0 km/h 78% 0.0 mm CLR
20:40 16.0 °C 12.2 °C 1011.6 hPa NE 16.1 km/h 27.4 km/h 78% 0.0 mm CLR
20:45 15.9 °C 12.3 °C 1011.6 hPa NNE 17.2 km/h 29.6 km/h 79% 0.0 mm CLR
20:50 15.8 °C 12.2 °C 1011.6 hPa ENE 17.2 km/h 27.8 km/h 79% 0.0 mm CLR
20:55 15.8 °C 12.3 °C 1011.6 hPa NE 17.2 km/h 24.1 km/h 80% 0.0 mm CLR
21:00 15.8 °C 12.3 °C 1011.6 hPa NE 16.1 km/h 22.5 km/h 80% 0.0 mm CLR
21:05 15.8 °C 12.3 °C 1011.7 hPa NE 16.1 km/h 22.5 km/h 80% 0.0 mm CLR
21:10 15.8 °C 12.3 °C 1011.7 hPa NE 13.0 km/h 25.9 km/h 80% 0.0 mm CLR
21:15 15.8 °C 12.6 °C 1011.7 hPa NE 13.0 km/h 20.4 km/h 81% 0.0 mm CLR
21:20 15.8 °C 12.6 °C 1011.8 hPa NE 14.5 km/h 22.5 km/h 81% 0.0 mm CLR
21:25 15.8 °C 12.6 °C 1011.8 hPa ENE 14.8 km/h 11.1 km/h 81% 0.0 mm CLR
21:30 15.8 °C 12.6 °C 1011.8 hPa ENE 8.7 km/h 11.1 km/h 81% 0.0 mm CLR
21:35 15.8 °C 12.6 °C 1012.4 hPa NE 9.7 km/h 16.1 km/h 81% 0.0 mm CLR
21:40 15.7 °C 12.4 °C 1012.4 hPa NE 10.0 km/h 18.5 km/h 81% 0.0 mm CLR
21:45 15.7 °C 12.4 °C 1012.4 hPa ENE 10.0 km/h 14.8 km/h 81% 0.0 mm CLR
21:50 15.7 °C 12.4 °C 1011.8 hPa NE 11.3 km/h 24.1 km/h 81% 0.0 mm CLR
21:55 15.6 °C 12.3 °C 1011.8 hPa NE 11.1 km/h 13.0 km/h 81% 0.0 mm CLR
22:00 15.6 °C 12.3 °C 1011.8 hPa NE 9.7 km/h 14.5 km/h 81% 0.0 mm CLR
22:05 15.6 °C 12.3 °C 1012.0 hPa North 9.5 km/h 9.5 km/h 81% 0.0 mm CLR
22:10 15.6 °C 12.6 °C 1012.0 hPa NNE 6.4 km/h 7.4 km/h 82% 0.0 mm CLR
22:15 15.6 °C 12.6 °C 1012.0 hPa NE 6.4 km/h   82% 0.0 mm CLR
22:20 15.5 °C 12.3 °C 1012.5 hPa NE 3.2 km/h 8.0 km/h 81% 0.0 mm CLR
22:25 15.5 °C 12.3 °C 1012.5 hPa NE 3.2 km/h 9.3 km/h 81% 0.0 mm CLR
22:30 15.5 °C 12.3 °C 1012.5 hPa NE 4.8 km/h 9.7 km/h 81% 0.0 mm CLR
22:35 15.5 °C 12.3 °C 1012.4 hPa East 5.8 km/h 7.4 km/h 81% 0.0 mm CLR
22:40 15.5 °C 12.3 °C 1012.4 hPa North 5.0 km/h 5.6 km/h 81% 0.0 mm CLR
22:45 15.5 °C 12.3 °C 1012.4 hPa NNW 5.0 km/h 5.6 km/h 81% 0.0 mm CLR
22:50 15.6 °C 12.3 °C 1012.5 hPa NE 2.9 km/h 3.9 km/h 81% 0.0 mm CLR
22:55 15.5 °C 12.3 °C 1012.5 hPa NE 2.9 km/h 3.7 km/h 81% 0.0 mm CLR
23:00 15.5 °C 12.3 °C 1012.5 hPa NE 3.2 km/h 3.2 km/h 81% 0.0 mm CLR
23:05 15.5 °C 12.3 °C 1012.7 hPa NE 2.9 km/h 3.7 km/h 81% 0.0 mm CLR
23:10 15.6 °C 12.2 °C 1012.7 hPa NE 3.2 km/h 9.3 km/h 80% 0.0 mm CLR
23:15 15.5 °C 12.3 °C 1012.7 hPa NNE 3.2 km/h 7.4 km/h 81% 0.0 mm CLR
23:20 15.5 °C 12.3 °C 1012.8 hPa WNW 4.7 km/h 9.3 km/h 81% 0.0 mm CLR
23:25 15.4 °C 12.2 °C 1012.8 hPa WNW 4.7 km/h 11.1 km/h 81% 0.0 mm CLR
23:30 15.4 °C 12.2 °C 1012.8 hPa West 6.4 km/h 9.3 km/h 81% 0.0 mm CLR
23:35 15.3 °C 12.1 °C 1013.4 hPa WSW 6.4 km/h 10.3 km/h 81% 0.0 mm CLR
23:40 15.4 °C 12.2 °C 1013.4 hPa WNW 6.4 km/h 9.3 km/h 81% 0.0 mm CLR
23:45 15.4 °C 11.9 °C 1013.4 hPa NW 6.4 km/h 9.3 km/h 80% 0.0 mm CLR
23:50 15.4 °C 11.9 °C 1013.8 hPa West 7.6 km/h 11.1 km/h 80% 0.0 mm CLR
23:55 15.4 °C 11.9 °C 1013.8 hPa WNW 7.6 km/h 13.0 km/h 80% 0.0 mm CLR
Murcia-Puente Tocinos, España
Compliments of Weather Underground - 2.75 mb

La estación de MeteoMurcia.com, publica sus datos en los siguientes proyectos:

Weather Underground PWS IMURCIAP2 Meteoclimatic www.awekas.at

W3Counter
Web Analytics